Year,Month,Day,Hour,Minute,Value (Times are PST for windspeed in km/hr)
2018,05,26,00,00,3.70
2018,05,26,00,01,3.30
2018,05,26,00,02,3.70
2018,05,26,00,03,2.70
2018,05,26,00,04,2.70
2018,05,26,00,05,2.50
2018,05,26,00,06,2.60
2018,05,26,00,07,3.20
2018,05,26,00,08,3.80
2018,05,26,00,09,4.50
2018,05,26,00,10,4.70
2018,05,26,00,11,3.90
2018,05,26,00,12,4.50
2018,05,26,00,13,4.20
2018,05,26,00,14,2.80
2018,05,26,00,15,3.80
2018,05,26,00,16,2.10
2018,05,26,00,17,1.20
2018,05,26,00,18,1.40
2018,05,26,00,19,3.70
2018,05,26,00,20,5.60
2018,05,26,00,21,4.20
2018,05,26,00,22,4.60
2018,05,26,00,23,5.00
2018,05,26,00,24,2.90
2018,05,26,00,25,4.10
2018,05,26,00,26,2.60
2018,05,26,00,27,3.40
2018,05,26,00,28,2.60
2018,05,26,00,29,4.00
2018,05,26,00,30,5.60
2018,05,26,00,31,3.40
2018,05,26,00,32,5.00
2018,05,26,00,33,4.70
2018,05,26,00,34,5.30
2018,05,26,00,35,7.80
2018,05,26,00,36,6.10
2018,05,26,00,37,5.60
2018,05,26,00,38,4.50
2018,05,26,00,39,6.40
2018,05,26,00,40,5.90
2018,05,26,00,41,5.70
2018,05,26,00,42,5.70
2018,05,26,00,43,6.30
2018,05,26,00,44,6.30
2018,05,26,00,45,5.60
2018,05,26,00,46,4.70
2018,05,26,00,47,5.90
2018,05,26,00,48,5.90
2018,05,26,00,49,8.10
2018,05,26,00,50,6.10
2018,05,26,00,51,5.40
2018,05,26,00,52,5.80
2018,05,26,00,53,6.40
2018,05,26,00,54,6.50
2018,05,26,00,55,6.00
2018,05,26,00,56,6.60
2018,05,26,00,57,4.50
2018,05,26,00,58,5.10
2018,05,26,00,59,5.60
2018,05,26,01,00,4.20
2018,05,26,01,01,4.10
2018,05,26,01,02,2.70
2018,05,26,01,03,2.90
2018,05,26,01,04,3.90
2018,05,26,01,05,2.40
2018,05,26,01,06,4.20
2018,05,26,01,07,3.50
2018,05,26,01,08,4.40
2018,05,26,01,09,3.90
2018,05,26,01,10,2.10
2018,05,26,01,11,2.40
2018,05,26,01,12,2.30
2018,05,26,01,13,2.50
2018,05,26,01,14,2.90
2018,05,26,01,15,2.00
2018,05,26,01,16,4.30
2018,05,26,01,17,4.50
2018,05,26,01,18,3.50
2018,05,26,01,19,2.50
2018,05,26,01,20,3.20
2018,05,26,01,21,3.90
2018,05,26,01,22,5.30
2018,05,26,01,23,4.20
2018,05,26,01,24,3.30
2018,05,26,01,25,4.20
2018,05,26,01,26,4.60
2018,05,26,01,27,5.20
2018,05,26,01,28,4.60
2018,05,26,01,29,1.80
2018,05,26,01,30,2.30
2018,05,26,01,31,2.90
2018,05,26,01,32,2.90
2018,05,26,01,33,4.30
2018,05,26,01,34,5.20
2018,05,26,01,35,6.40
2018,05,26,01,36,5.60
2018,05,26,01,37,4.70
2018,05,26,01,38,4.50
2018,05,26,01,39,3.00
2018,05,26,01,40,2.80
2018,05,26,01,41,6.50
2018,05,26,01,42,6.00
2018,05,26,01,43,5.30
2018,05,26,01,44,4.30
2018,05,26,01,45,5.30
2018,05,26,01,46,3.90
2018,05,26,01,47,2.10
2018,05,26,01,48,2.20
2018,05,26,01,49,3.80
2018,05,26,01,50,4.00
2018,05,26,01,51,6.10
2018,05,26,01,52,3.70
2018,05,26,01,53,4.80
2018,05,26,01,54,4.20
2018,05,26,01,55,6.40
2018,05,26,01,56,5.50
2018,05,26,01,57,3.40
2018,05,26,01,58,3.10
2018,05,26,01,59,3.10
2018,05,26,02,00,1.80
2018,05,26,02,01,0.20
2018,05,26,02,02,1.80
2018,05,26,02,03,2.10
2018,05,26,02,04,4.40
2018,05,26,02,05,4.40
2018,05,26,02,06,4.60
2018,05,26,02,07,3.30
2018,05,26,02,08,4.30
2018,05,26,02,09,4.30
2018,05,26,02,10,4.90
2018,05,26,02,11,5.80
2018,05,26,02,12,4.60
2018,05,26,02,13,2.60
2018,05,26,02,14,3.50
2018,05,26,02,15,3.70
2018,05,26,02,16,2.50
2018,05,26,02,17,3.90
2018,05,26,02,18,2.70
2018,05,26,02,19,4.00
2018,05,26,02,20,3.60
2018,05,26,02,21,3.10
2018,05,26,02,22,3.90
2018,05,26,02,23,4.30
2018,05,26,02,24,5.40
2018,05,26,02,25,5.80
2018,05,26,02,26,4.90
2018,05,26,02,27,4.60
2018,05,26,02,28,6.40
2018,05,26,02,29,3.90
2018,05,26,02,30,4.70
2018,05,26,02,31,4.20
2018,05,26,02,32,3.70
2018,05,26,02,33,4.40
2018,05,26,02,34,2.90
2018,05,26,02,35,2.50
2018,05,26,02,36,3.50
2018,05,26,02,37,3.40
2018,05,26,02,38,4.70
2018,05,26,02,39,3.10
2018,05,26,02,40,3.50
2018,05,26,02,41,5.10
2018,05,26,02,42,3.10
2018,05,26,02,43,4.70
2018,05,26,02,44,4.80
2018,05,26,02,45,4.80
2018,05,26,02,46,4.80
2018,05,26,02,47,5.00
2018,05,26,02,48,4.00
2018,05,26,02,49,4.40
2018,05,26,02,50,5.60
2018,05,26,02,51,4.30
2018,05,26,02,52,3.40
2018,05,26,02,53,3.30
2018,05,26,02,54,4.70
2018,05,26,02,55,3.60
2018,05,26,02,56,3.10
2018,05,26,02,57,4.10
2018,05,26,02,58,5.10
2018,05,26,02,59,6.90
2018,05,26,03,00,5.40
2018,05,26,03,01,5.70
2018,05,26,03,02,5.60
2018,05,26,03,03,5.00
2018,05,26,03,04,3.40
2018,05,26,03,05,3.20
2018,05,26,03,06,3.50
2018,05,26,03,07,1.40
2018,05,26,03,08,2.60
2018,05,26,03,09,2.70
2018,05,26,03,10,2.00
2018,05,26,03,11,4.00
2018,05,26,03,12,2.80
2018,05,26,03,13,3.10
2018,05,26,03,14,4.10
2018,05,26,03,15,3.00
2018,05,26,03,16,2.50
2018,05,26,03,17,1.80
2018,05,26,03,18,3.60
2018,05,26,03,19,4.40
2018,05,26,03,20,4.50
2018,05,26,03,21,3.20
2018,05,26,03,22,3.30
2018,05,26,03,23,3.10
2018,05,26,03,24,4.70
2018,05,26,03,25,4.10
2018,05,26,03,26,2.70
2018,05,26,03,27,3.30
2018,05,26,03,28,5.00
2018,05,26,03,29,5.20
2018,05,26,03,30,5.40
2018,05,26,03,31,4.40
2018,05,26,03,32,3.90
2018,05,26,03,33,3.90
2018,05,26,03,34,3.10
2018,05,26,03,35,2.30
2018,05,26,03,36,4.10
2018,05,26,03,37,3.20
2018,05,26,03,38,1.60
2018,05,26,03,39,0.00
2018,05,26,03,40,0.00
2018,05,26,03,41,0.10
2018,05,26,03,42,1.60
2018,05,26,03,43,2.70
2018,05,26,03,44,3.00
2018,05,26,03,45,2.80
2018,05,26,03,46,3.40
2018,05,26,03,47,3.40
2018,05,26,03,48,1.50
2018,05,26,03,49,0.30
2018,05,26,03,50,0.00
2018,05,26,03,51,0.10
2018,05,26,03,52,0.30
2018,05,26,03,53,0.60
2018,05,26,03,54,2.90
2018,05,26,03,55,2.50
2018,05,26,03,56,1.80
2018,05,26,03,57,2.10
2018,05,26,03,58,2.80
2018,05,26,03,59,2.60
2018,05,26,04,00,4.80
2018,05,26,04,01,2.40
2018,05,26,04,02,3.10
2018,05,26,04,03,2.80
2018,05,26,04,04,2.60
2018,05,26,04,08,2.70
2018,05,26,04,09,1.50
2018,05,26,04,10,1.60
2018,05,26,04,11,1.90
2018,05,26,04,12,1.80
2018,05,26,04,13,0.20
2018,05,26,04,14,0.50
2018,05,26,04,15,2.80
2018,05,26,04,16,1.00
2018,05,26,04,17,0.00
2018,05,26,04,18,0.30
2018,05,26,04,19,2.40
2018,05,26,04,20,1.50
2018,05,26,04,21,3.80
2018,05,26,04,22,4.40
2018,05,26,04,23,3.70
2018,05,26,04,24,2.30
2018,05,26,04,25,3.10
2018,05,26,04,26,3.80
2018,05,26,04,27,2.80
2018,05,26,04,28,3.70
2018,05,26,04,29,2.90
2018,05,26,04,30,3.50
2018,05,26,04,31,3.10
2018,05,26,04,32,2.20
2018,05,26,04,33,2.40
2018,05,26,04,34,1.40
2018,05,26,04,35,3.10
2018,05,26,04,36,3.60
2018,05,26,04,37,3.20
2018,05,26,04,38,4.10
2018,05,26,04,39,4.40
2018,05,26,04,40,3.40
2018,05,26,04,41,4.20
2018,05,26,04,42,4.70
2018,05,26,04,43,2.40
2018,05,26,04,44,3.10
2018,05,26,04,45,3.30
2018,05,26,04,46,2.70
2018,05,26,04,47,0.40
2018,05,26,04,48,0.10
2018,05,26,04,49,0.30
2018,05,26,04,50,0.50
2018,05,26,04,51,1.30
2018,05,26,04,52,2.10
2018,05,26,04,53,0.80
2018,05,26,04,54,0.40
2018,05,26,04,55,0.50
2018,05,26,04,56,0.00
2018,05,26,04,57,0.20
2018,05,26,04,58,0.00
2018,05,26,04,59,0.10
2018,05,26,05,00,0.30
2018,05,26,05,01,0.20
2018,05,26,05,02,0.00
2018,05,26,05,03,0.00
2018,05,26,05,04,0.00
2018,05,26,05,05,0.50
2018,05,26,05,06,1.60
2018,05,26,05,07,0.00
2018,05,26,05,08,0.00
2018,05,26,05,09,0.00
2018,05,26,05,10,0.00
2018,05,26,05,11,0.10
2018,05,26,05,12,0.00
2018,05,26,05,13,0.00
2018,05,26,05,14,0.00
2018,05,26,05,15,0.00
2018,05,26,05,16,0.40
2018,05,26,05,17,0.20
2018,05,26,05,18,0.20
2018,05,26,05,19,1.30
2018,05,26,05,20,0.40
2018,05,26,05,21,0.20
2018,05,26,05,22,0.60
2018,05,26,05,23,0.30
2018,05,26,05,24,2.20
2018,05,26,05,25,2.10
2018,05,26,05,26,3.00
2018,05,26,05,27,3.80
2018,05,26,05,28,3.90
2018,05,26,05,29,3.10
2018,05,26,05,30,1.90
2018,05,26,05,31,1.20
2018,05,26,05,32,1.40
2018,05,26,05,33,1.10
2018,05,26,05,34,0.30
2018,05,26,05,35,0.20
2018,05,26,05,36,0.00
2018,05,26,05,37,0.70
2018,05,26,05,38,1.30
2018,05,26,05,39,0.80
2018,05,26,05,40,0.30
2018,05,26,05,41,0.20
2018,05,26,05,42,1.40
2018,05,26,05,43,1.80
2018,05,26,05,44,2.10
2018,05,26,05,45,2.30
2018,05,26,05,46,2.40
2018,05,26,05,47,2.60
2018,05,26,05,48,2.70
2018,05,26,05,49,0.70
2018,05,26,05,50,2.40
2018,05,26,05,51,1.60
2018,05,26,05,52,0.60
2018,05,26,05,53,2.60
2018,05,26,05,54,1.80
2018,05,26,05,55,1.10
2018,05,26,05,56,2.30
2018,05,26,05,57,3.40
2018,05,26,05,58,2.60
2018,05,26,05,59,3.30
2018,05,26,06,00,3.20
2018,05,26,06,01,2.20
2018,05,26,06,02,2.50
2018,05,26,06,03,1.40
2018,05,26,06,04,0.60
2018,05,26,06,05,0.20
2018,05,26,06,06,0.20
2018,05,26,06,07,0.10
2018,05,26,06,08,1.30
2018,05,26,06,09,1.80
2018,05,26,06,10,0.20
2018,05,26,06,11,0.10
2018,05,26,06,12,0.00
2018,05,26,06,13,0.00
2018,05,26,06,14,0.00
2018,05,26,06,15,0.00
2018,05,26,06,16,0.40
2018,05,26,06,17,2.30
2018,05,26,06,18,0.70
2018,05,26,06,19,0.00
2018,05,26,06,20,0.60
2018,05,26,06,21,0.60
2018,05,26,06,22,0.00
2018,05,26,06,23,0.20
2018,05,26,06,24,2.90
2018,05,26,06,25,3.40
2018,05,26,06,26,2.00
2018,05,26,06,27,0.20
2018,05,26,06,28,3.20
2018,05,26,06,29,3.10
2018,05,26,06,30,3.20
2018,05,26,06,31,2.60
2018,05,26,06,32,2.20
2018,05,26,06,33,0.90
2018,05,26,06,34,0.00
2018,05,26,06,35,1.20
2018,05,26,06,36,3.10
2018,05,26,06,37,3.00
2018,05,26,06,38,2.70
2018,05,26,06,39,1.50
2018,05,26,06,40,2.90
2018,05,26,06,41,2.30
2018,05,26,06,42,2.80
2018,05,26,06,43,4.20
2018,05,26,06,44,3.70
2018,05,26,06,45,6.20
2018,05,26,06,46,6.70
2018,05,26,06,47,4.30
2018,05,26,06,48,5.20
2018,05,26,06,49,5.70
2018,05,26,06,50,5.80
2018,05,26,06,51,3.20
2018,05,26,06,52,1.70
2018,05,26,06,53,4.20
2018,05,26,06,54,4.70
2018,05,26,06,55,5.10
2018,05,26,06,56,4.50
2018,05,26,06,57,4.00
2018,05,26,06,58,5.40
2018,05,26,06,59,5.80
2018,05,26,07,00,6.40
2018,05,26,07,01,4.70
2018,05,26,07,02,4.30
2018,05,26,07,03,2.60
2018,05,26,07,04,2.70
2018,05,26,07,05,3.00
2018,05,26,07,06,2.60
2018,05,26,07,07,1.00
2018,05,26,07,08,0.90
2018,05,26,07,09,0.70
2018,05,26,07,10,0.00
2018,05,26,07,11,0.00
2018,05,26,07,12,0.00
2018,05,26,07,13,1.00
2018,05,26,07,14,1.20
2018,05,26,07,15,2.70
2018,05,26,07,16,3.00
2018,05,26,07,17,3.00
2018,05,26,07,18,2.20
2018,05,26,07,19,1.50
2018,05,26,07,20,0.70
2018,05,26,07,21,0.50
2018,05,26,07,22,0.30
2018,05,26,07,23,0.80
2018,05,26,07,24,0.00
2018,05,26,07,25,1.50
2018,05,26,07,26,1.70
2018,05,26,07,27,2.60
2018,05,26,07,28,2.40
2018,05,26,07,29,1.80
2018,05,26,07,30,3.40
2018,05,26,07,31,5.10
2018,05,26,07,32,1.80
2018,05,26,07,33,1.00
2018,05,26,07,34,0.20
2018,05,26,07,35,1.10
2018,05,26,07,36,1.20
2018,05,26,07,37,0.50
2018,05,26,07,38,0.00
2018,05,26,07,39,0.20
2018,05,26,07,40,0.20
2018,05,26,07,41,0.20
2018,05,26,07,42,0.60
2018,05,26,07,43,0.30
2018,05,26,07,44,3.50
2018,05,26,07,45,2.30
2018,05,26,07,46,1.20
2018,05,26,07,47,2.40
2018,05,26,07,48,0.20
2018,05,26,07,49,0.30
2018,05,26,07,50,0.10
2018,05,26,07,51,1.50
2018,05,26,07,52,4.80
2018,05,26,07,53,2.80
2018,05,26,07,54,4.70
2018,05,26,07,55,6.30
2018,05,26,07,56,3.80
2018,05,26,07,57,3.20
2018,05,26,07,58,3.70
2018,05,26,07,59,4.40
2018,05,26,08,00,5.30
2018,05,26,08,01,3.80
2018,05,26,08,02,3.10
2018,05,26,08,03,3.70
2018,05,26,08,04,3.60
2018,05,26,08,05,3.20
2018,05,26,08,06,4.50
2018,05,26,08,07,2.90
2018,05,26,08,08,4.50
2018,05,26,08,09,2.80
2018,05,26,08,10,1.00
2018,05,26,08,11,1.40
2018,05,26,08,12,1.50
2018,05,26,08,13,1.60
2018,05,26,08,14,0.40
2018,05,26,08,15,1.40
2018,05,26,08,16,1.80
2018,05,26,08,17,2.60
2018,05,26,08,18,3.00
2018,05,26,08,19,2.20
2018,05,26,08,20,1.20
2018,05,26,08,21,1.20
2018,05,26,08,22,1.70
2018,05,26,08,23,2.50
2018,05,26,08,24,3.10
2018,05,26,08,25,1.70
2018,05,26,08,26,0.60
2018,05,26,08,27,0.30
2018,05,26,08,28,0.80
2018,05,26,08,29,1.30
2018,05,26,08,30,0.50
2018,05,26,08,31,0.90
2018,05,26,08,32,0.00
2018,05,26,08,33,0.70
2018,05,26,08,34,0.80
2018,05,26,08,35,3.30
2018,05,26,08,36,7.40
2018,05,26,08,37,4.80
2018,05,26,08,38,3.20
2018,05,26,08,39,0.20
2018,05,26,08,40,0.20
2018,05,26,08,41,0.20
2018,05,26,08,42,1.20
2018,05,26,08,43,0.20
2018,05,26,08,44,0.50
2018,05,26,08,45,0.50
2018,05,26,08,46,0.50
2018,05,26,08,47,0.50
2018,05,26,08,48,0.80
2018,05,26,08,49,2.80
2018,05,26,08,50,2.60
2018,05,26,08,51,1.80
2018,05,26,08,52,2.10
2018,05,26,08,53,2.40
2018,05,26,08,54,4.40
2018,05,26,08,55,2.90
2018,05,26,08,56,4.70
2018,05,26,08,57,4.50
2018,05,26,08,58,3.80
2018,05,26,08,59,2.20
2018,05,26,09,00,3.30
2018,05,26,09,01,5.90
2018,05,26,09,02,2.80
2018,05,26,09,03,1.10
2018,05,26,09,04,1.60
2018,05,26,09,05,2.20
2018,05,26,09,06,2.20
2018,05,26,09,07,1.70
2018,05,26,09,08,0.90
2018,05,26,09,09,3.10
2018,05,26,09,10,2.80
2018,05,26,09,11,2.10
2018,05,26,09,12,1.10
2018,05,26,09,13,3.30
2018,05,26,09,14,4.10
2018,05,26,09,15,5.00
2018,05,26,09,16,4.10
2018,05,26,09,17,2.80
2018,05,26,09,18,1.80
2018,05,26,09,19,2.60
2018,05,26,09,20,1.60
2018,05,26,09,21,0.10
2018,05,26,09,22,1.80
2018,05,26,09,23,2.90
2018,05,26,09,24,1.90
2018,05,26,09,25,2.80
2018,05,26,09,26,5.10
2018,05,26,09,27,4.50
2018,05,26,09,28,5.70
2018,05,26,09,29,6.20
2018,05,26,09,30,5.00
2018,05,26,09,31,5.50
2018,05,26,09,32,3.90
2018,05,26,09,33,7.90
2018,05,26,09,34,7.90
2018,05,26,09,35,7.10
2018,05,26,09,36,6.70
2018,05,26,09,37,7.90
2018,05,26,09,38,6.80
2018,05,26,09,39,4.20
2018,05,26,09,40,5.20
2018,05,26,09,41,4.40
2018,05,26,09,42,5.20
2018,05,26,09,43,6.10
2018,05,26,09,44,5.50
2018,05,26,09,45,6.00
2018,05,26,09,46,7.00
2018,05,26,09,47,5.40
2018,05,26,09,48,5.70
2018,05,26,09,49,6.20
2018,05,26,09,50,8.10
2018,05,26,09,51,6.80
2018,05,26,09,52,8.40
2018,05,26,09,53,7.30
2018,05,26,09,54,6.40
2018,05,26,09,55,5.50
2018,05,26,09,56,9.90
2018,05,26,09,57,9.30
2018,05,26,09,58,9.20
2018,05,26,09,59,7.10
2018,05,26,10,00,9.20
2018,05,26,10,01,6.30
2018,05,26,10,02,6.70
2018,05,26,10,03,6.30
2018,05,26,10,04,3.40
2018,05,26,10,05,5.70
2018,05,26,10,06,5.80
2018,05,26,10,07,7.00
2018,05,26,10,08,6.90
2018,05,26,10,09,7.10
2018,05,26,10,10,8.30
2018,05,26,10,11,6.00
2018,05,26,10,12,4.70
2018,05,26,10,13,5.30
2018,05,26,10,14,4.90
2018,05,26,10,15,3.30
2018,05,26,10,16,4.70
2018,05,26,10,17,7.40
2018,05,26,10,18,5.40
2018,05,26,10,19,7.00
2018,05,26,10,20,7.50
2018,05,26,10,21,3.80
2018,05,26,10,22,5.40
2018,05,26,10,23,2.10
2018,05,26,10,24,3.10
2018,05,26,10,25,8.10
2018,05,26,10,26,8.10
2018,05,26,10,27,8.20
2018,05,26,10,28,6.70
2018,05,26,10,29,7.00
2018,05,26,10,30,4.00
2018,05,26,10,31,4.20
2018,05,26,10,32,4.80
2018,05,26,10,33,4.20
2018,05,26,10,34,3.10
2018,05,26,10,35,3.70
2018,05,26,10,36,4.00
2018,05,26,10,37,2.50
2018,05,26,10,38,1.60
2018,05,26,10,39,3.80
2018,05,26,10,40,5.10
2018,05,26,10,41,6.50
2018,05,26,10,42,7.90
2018,05,26,10,43,8.40
2018,05,26,10,44,9.00
2018,05,26,10,45,10.30
2018,05,26,10,46,7.70
2018,05,26,10,47,10.70
2018,05,26,10,48,4.10
2018,05,26,10,49,3.40
2018,05,26,10,50,6.90
2018,05,26,10,51,7.50
2018,05,26,10,52,9.70
2018,05,26,10,53,8.70
2018,05,26,10,54,7.30
2018,05,26,10,55,7.50
2018,05,26,10,56,5.90
2018,05,26,10,57,7.70
2018,05,26,10,58,9.70
2018,05,26,10,59,6.30
2018,05,26,11,00,7.80
2018,05,26,11,01,8.30
2018,05,26,11,02,10.60
2018,05,26,11,03,6.80
2018,05,26,11,04,7.80
2018,05,26,11,05,12.30
2018,05,26,11,06,10.40
2018,05,26,11,07,10.70
2018,05,26,11,08,12.30
2018,05,26,11,09,9.20
2018,05,26,11,10,10.90
2018,05,26,11,11,6.20
2018,05,26,11,12,8.30
2018,05,26,11,13,7.20
2018,05,26,11,14,3.70
2018,05,26,11,15,5.10
2018,05,26,11,16,6.00
2018,05,26,11,17,5.50
2018,05,26,11,18,5.60
2018,05,26,11,19,4.70
2018,05,26,11,20,8.70
2018,05,26,11,21,6.80
2018,05,26,11,22,4.70
2018,05,26,11,23,7.20
2018,05,26,11,24,7.70
2018,05,26,11,25,6.80
2018,05,26,11,26,6.00
2018,05,26,11,27,3.40
2018,05,26,11,28,3.00
2018,05,26,11,29,5.40
2018,05,26,11,30,7.50
2018,05,26,11,31,2.20
2018,05,26,11,32,5.00
2018,05,26,11,33,6.90
2018,05,26,11,34,6.50
2018,05,26,11,35,7.40
2018,05,26,11,36,8.40
2018,05,26,11,37,4.00
2018,05,26,11,38,5.70
2018,05,26,11,39,7.90
2018,05,26,11,40,7.10
2018,05,26,11,41,7.40
2018,05,26,11,42,11.20
2018,05,26,11,43,8.70
2018,05,26,11,44,8.90
2018,05,26,11,45,8.10
2018,05,26,11,46,3.70
2018,05,26,11,47,5.10
2018,05,26,11,48,7.10
2018,05,26,11,49,4.20
2018,05,26,11,50,2.90
2018,05,26,11,51,1.90
2018,05,26,11,52,3.90
2018,05,26,11,53,9.10
2018,05,26,11,54,11.40
2018,05,26,11,55,10.50
2018,05,26,11,56,10.60
2018,05,26,11,57,15.80
2018,05,26,11,58,10.70
2018,05,26,11,59,8.50
2018,05,26,12,00,13.40
2018,05,26,12,01,5.00
2018,05,26,12,02,7.80
2018,05,26,12,03,10.70
2018,05,26,12,04,8.20
2018,05,26,12,05,8.00
2018,05,26,12,06,5.60
2018,05,26,12,07,4.30
2018,05,26,12,08,4.50
2018,05,26,12,09,8.30
2018,05,26,12,10,11.80
2018,05,26,12,11,13.40
2018,05,26,12,12,11.10
2018,05,26,12,13,7.10
2018,05,26,12,14,12.20
2018,05,26,12,15,12.00
2018,05,26,12,16,7.40
2018,05,26,12,17,3.80
2018,05,26,12,18,6.00
2018,05,26,12,19,4.70
2018,05,26,12,20,7.30
2018,05,26,12,21,7.80
2018,05,26,12,22,7.80
2018,05,26,12,23,6.10
2018,05,26,12,24,5.30
2018,05,26,12,25,5.70
2018,05,26,12,26,7.80
2018,05,26,12,27,10.90
2018,05,26,12,28,12.20
2018,05,26,12,29,11.80
2018,05,26,12,30,14.00
2018,05,26,12,31,17.60
2018,05,26,12,32,9.40
2018,05,26,12,33,7.70
2018,05,26,12,34,6.40
2018,05,26,12,35,4.40
2018,05,26,12,36,8.40
2018,05,26,12,37,9.70
2018,05,26,12,38,6.00
2018,05,26,12,39,4.10
2018,05,26,12,40,3.90
2018,05,26,12,41,2.10
2018,05,26,12,42,5.50
2018,05,26,12,43,6.20
2018,05,26,12,44,5.80
2018,05,26,12,45,6.60
2018,05,26,12,46,5.90
2018,05,26,12,47,0.90
2018,05,26,12,48,3.30
2018,05,26,12,49,1.80
2018,05,26,12,50,11.90
2018,05,26,12,51,9.80
2018,05,26,12,52,11.00
2018,05,26,12,53,11.80
2018,05,26,12,54,5.60
2018,05,26,12,55,4.90
2018,05,26,12,56,7.20
2018,05,26,12,57,8.60
2018,05,26,12,58,5.40
2018,05,26,12,59,8.00
2018,05,26,13,00,5.30
2018,05,26,13,01,5.30
2018,05,26,13,02,11.70
2018,05,26,13,03,7.90
2018,05,26,13,04,7.10
2018,05,26,13,05,6.40
2018,05,26,13,06,8.20
2018,05,26,13,07,9.70
2018,05,26,13,08,13.80
2018,05,26,13,09,8.50
2018,05,26,13,10,9.60
2018,05,26,13,11,7.80
2018,05,26,13,12,10.70
2018,05,26,13,13,13.80
2018,05,26,13,14,12.10
2018,05,26,13,15,8.40
2018,05,26,13,16,5.70
2018,05,26,13,17,4.80
2018,05,26,13,18,8.50
2018,05,26,13,19,3.10
2018,05,26,13,20,6.70
2018,05,26,13,21,6.70
2018,05,26,13,22,3.10
2018,05,26,13,23,5.90
2018,05,26,13,24,5.70
2018,05,26,13,25,5.90
2018,05,26,13,26,1.60
2018,05,26,13,27,8.70
2018,05,26,13,28,9.00
2018,05,26,13,29,3.50
2018,05,26,13,30,1.50
2018,05,26,13,31,2.80
2018,05,26,13,32,1.90
2018,05,26,13,33,1.70
2018,05,26,13,34,3.10
2018,05,26,13,35,4.00
2018,05,26,13,36,3.10
2018,05,26,13,37,7.50
2018,05,26,13,38,8.70
2018,05,26,13,39,9.20
2018,05,26,13,40,4.60
2018,05,26,13,41,10.20
2018,05,26,13,42,7.40
2018,05,26,13,43,6.00
2018,05,26,13,44,5.50
2018,05,26,13,45,6.30
2018,05,26,13,46,6.70
2018,05,26,13,47,5.90
2018,05,26,13,48,3.10
2018,05,26,13,49,8.50
2018,05,26,13,50,9.40
2018,05,26,13,51,1.60
2018,05,26,13,52,3.30
2018,05,26,13,53,5.40
2018,05,26,13,54,4.80
2018,05,26,13,55,9.40
2018,05,26,13,56,9.70
2018,05,26,13,57,10.20
2018,05,26,13,58,9.70
2018,05,26,13,59,8.60
2018,05,26,14,00,4.70
2018,05,26,14,01,7.30
2018,05,26,14,02,8.40
2018,05,26,14,03,14.40
2018,05,26,14,04,11.30
2018,05,26,14,05,10.40
2018,05,26,14,06,12.70
2018,05,26,14,07,10.40
2018,05,26,14,08,11.50
2018,05,26,14,09,8.90
2018,05,26,14,10,5.60
2018,05,26,14,11,5.50
2018,05,26,14,12,7.10
2018,05,26,14,13,7.80
2018,05,26,14,14,5.00
2018,05,26,14,15,4.20
2018,05,26,14,16,3.80
2018,05,26,14,17,2.40
2018,05,26,14,18,3.40
2018,05,26,14,19,5.10
2018,05,26,14,20,7.30
2018,05,26,14,21,9.20
2018,05,26,14,22,2.80
2018,05,26,14,23,5.20
2018,05,26,14,24,9.50
2018,05,26,14,25,6.60
2018,05,26,14,26,8.50
2018,05,26,14,27,7.40
2018,05,26,14,28,8.30
2018,05,26,14,29,10.60
2018,05,26,14,30,8.40
2018,05,26,14,31,8.70
2018,05,26,14,32,6.40
2018,05,26,14,33,7.70
2018,05,26,14,34,7.20
2018,05,26,14,35,9.60
2018,05,26,14,36,5.80
2018,05,26,14,37,5.20
2018,05,26,14,38,7.40
2018,05,26,14,39,9.00
2018,05,26,14,40,12.60
2018,05,26,14,41,11.80
2018,05,26,14,42,8.20
2018,05,26,14,43,9.90
2018,05,26,14,44,5.00
2018,05,26,14,45,7.30
2018,05,26,14,46,5.30
2018,05,26,14,47,7.60
2018,05,26,14,48,9.70
2018,05,26,14,49,11.00
2018,05,26,14,50,9.10
2018,05,26,14,51,9.40
2018,05,26,14,52,8.30
2018,05,26,14,53,7.40
2018,05,26,14,54,7.10
2018,05,26,14,55,10.20
2018,05,26,14,56,11.30
2018,05,26,14,57,12.60
2018,05,26,14,58,6.90
2018,05,26,14,59,5.20
2018,05,26,15,00,7.30
2018,05,26,15,01,12.00
2018,05,26,15,02,10.90
2018,05,26,15,03,13.70
2018,05,26,15,04,10.80
2018,05,26,15,05,8.80
2018,05,26,15,06,7.40
2018,05,26,15,07,3.40
2018,05,26,15,08,1.60
2018,05,26,15,09,7.40
2018,05,26,15,10,5.70
2018,05,26,15,11,5.30
2018,05,26,15,12,11.10
2018,05,26,15,13,13.10
2018,05,26,15,14,12.50
2018,05,26,15,15,6.70
2018,05,26,15,16,6.50
2018,05,26,15,17,6.20
2018,05,26,15,18,8.60
2018,05,26,15,19,8.60
2018,05,26,15,20,7.00
2018,05,26,15,21,6.70
2018,05,26,15,22,3.80
2018,05,26,15,23,2.80
2018,05,26,15,24,8.00
2018,05,26,15,25,2.80
2018,05,26,15,26,5.70
2018,05,26,15,27,2.50
2018,05,26,15,28,7.70
2018,05,26,15,29,10.10
2018,05,26,15,30,6.10
2018,05,26,15,31,7.00
2018,05,26,15,32,8.40
2018,05,26,15,33,12.70
2018,05,26,15,34,12.00
2018,05,26,15,35,11.50
2018,05,26,15,36,8.10
2018,05,26,15,37,9.90
2018,05,26,15,38,11.30
2018,05,26,15,39,8.20
2018,05,26,15,40,5.20
2018,05,26,15,41,9.50
2018,05,26,15,42,6.50
2018,05,26,15,43,11.60
2018,05,26,15,44,10.20
2018,05,26,15,45,4.50
2018,05,26,15,46,3.90
2018,05,26,15,47,10.40
2018,05,26,15,48,7.50
2018,05,26,15,49,6.70
2018,05,26,15,50,4.20
2018,05,26,15,51,1.40
2018,05,26,15,52,5.10
2018,05,26,15,53,1.50
2018,05,26,15,54,0.60
2018,05,26,15,55,1.30
2018,05,26,15,56,8.10
2018,05,26,15,57,8.40
2018,05,26,15,58,4.90
2018,05,26,15,59,5.30
2018,05,26,16,00,5.10
2018,05,26,16,01,3.80
2018,05,26,16,02,5.30
2018,05,26,16,03,8.60
2018,05,26,16,04,12.40
2018,05,26,16,05,13.50
2018,05,26,16,06,8.70
2018,05,26,16,07,8.30
2018,05,26,16,08,7.80
2018,05,26,16,09,10.70
2018,05,26,16,10,10.80
2018,05,26,16,11,12.20
2018,05,26,16,12,7.50
2018,05,26,16,13,7.20
2018,05,26,16,14,7.20
2018,05,26,16,15,7.10
2018,05,26,16,16,10.90
2018,05,26,16,17,10.10
2018,05,26,16,18,13.90
2018,05,26,16,19,10.70
2018,05,26,16,20,16.20
2018,05,26,16,21,17.10
2018,05,26,16,22,9.90
2018,05,26,16,23,12.50
2018,05,26,16,24,7.10
2018,05,26,16,25,9.50
2018,05,26,16,26,5.20
2018,05,26,16,27,11.30
2018,05,26,16,28,9.80
2018,05,26,16,29,9.00
2018,05,26,16,30,14.30
2018,05,26,16,31,10.50
2018,05,26,16,32,13.40
2018,05,26,16,33,11.00
2018,05,26,16,34,16.40
2018,05,26,16,35,18.40
2018,05,26,16,36,13.60
2018,05,26,16,37,8.80
2018,05,26,16,38,11.70
2018,05,26,16,39,12.30
2018,05,26,16,40,11.90
2018,05,26,16,41,14.00
2018,05,26,16,42,13.40
2018,05,26,16,43,10.10
2018,05,26,16,44,9.10
2018,05,26,16,45,10.70
2018,05,26,16,46,7.50
2018,05,26,16,47,9.50
2018,05,26,16,48,15.90
2018,05,26,16,49,19.20
2018,05,26,16,50,14.50
2018,05,26,16,51,8.90
2018,05,26,16,52,8.90
2018,05,26,16,53,10.70
2018,05,26,16,54,13.70
2018,05,26,16,55,6.10
2018,05,26,16,56,3.80
2018,05,26,16,57,6.70
2018,05,26,16,58,9.00
2018,05,26,16,59,10.00
2018,05,26,17,00,9.10
2018,05,26,17,01,11.30
2018,05,26,17,02,6.10
2018,05,26,17,03,4.60
2018,05,26,17,04,8.70
2018,05,26,17,05,11.70
2018,05,26,17,06,6.90
2018,05,26,17,07,8.40
2018,05,26,17,08,8.00
2018,05,26,17,09,8.30
2018,05,26,17,10,6.60
2018,05,26,17,11,5.80
2018,05,26,17,12,10.10
2018,05,26,17,13,5.80
2018,05,26,17,14,8.10
2018,05,26,17,15,6.90
2018,05,26,17,16,8.70
2018,05,26,17,17,11.90
2018,05,26,17,18,6.50
2018,05,26,17,19,6.80
2018,05,26,17,20,10.30
2018,05,26,17,21,9.00
2018,05,26,17,22,10.10
2018,05,26,17,23,6.30
2018,05,26,17,24,7.60
2018,05,26,17,25,6.90
2018,05,26,17,26,4.30
2018,05,26,17,27,8.00
2018,05,26,17,28,7.80
2018,05,26,17,29,7.70
2018,05,26,17,30,8.10
2018,05,26,17,31,11.10
2018,05,26,17,32,13.40
2018,05,26,17,33,11.80
2018,05,26,17,34,12.50
2018,05,26,17,35,14.10
2018,05,26,17,36,12.70
2018,05,26,17,37,10.70
2018,05,26,17,38,11.50
2018,05,26,17,39,11.70
2018,05,26,17,40,10.20
2018,05,26,17,41,11.80
2018,05,26,17,42,11.10
2018,05,26,17,43,5.20
2018,05,26,17,44,9.00
2018,05,26,17,45,9.90
2018,05,26,17,46,11.50
2018,05,26,17,47,6.60
2018,05,26,17,48,9.50
2018,05,26,17,49,8.90
2018,05,26,17,50,11.30
2018,05,26,17,51,7.00
2018,05,26,17,52,6.60
2018,05,26,17,53,7.40
2018,05,26,17,54,9.80
2018,05,26,17,55,9.40
2018,05,26,17,56,8.10
2018,05,26,17,57,6.90
2018,05,26,17,58,8.70
2018,05,26,17,59,9.20
2018,05,26,18,00,5.40
2018,05,26,18,01,5.40
2018,05,26,18,02,7.50
2018,05,26,18,03,10.30
2018,05,26,18,04,10.20